Location: Poughquag
(41.6090°N, 73.6820°W)
Time: 09:54:36
(UTC-05:00)

Vanguard 3 - Pass Details

Date: 01 December 2023
Orbit: 508 x 3239 km, 33.4° (Epoch: 03 March)

Event Time Altitude Azimuth Distance (km) Brightness Sun altitude
Rises 21:00:22 0° 216° (SW) 6,218 11.8 -50.5°
Reaches altitude 10° 21:06:10 10° 204° (SSW) 4,700 11.0 -51.6°
Enters shadow 21:07:09 12° 201° (SSW) 4,448 10.9 -51.8°
